Location: Arbon
(43.0005°N, 0.7472°E)
Time: 10:19:20
(UTC+00:00)

Vanguard 2 Rocket - Pass Details

Date: 30 November 2020
Orbit: 554 x 3325 km, 32.9° (Epoch: 21 January)

Event Time Altitude Azimuth Distance (km) Brightness Sun altitude
Rises 12:01:39 0° 275° (W) 7,207 11.5 25.1°
Reaches altitude 10° 12:07:09 10° 270° (W) 5,981 11.2 25.1°
Maximum altitude 12:22:53 43° 208° (SSW) 2,984 11.0 24.7°
Drops below altitude 10° 12:32:51 10° 141° (SE) 3,842 10.7 24.3°
Sets 12:35:35 0° 134° (SE) 4,507 10.9 24.2°
